Station CPXA2 - Captains Bay Image indicating link to RSS feed of recent meteorological observations for station CPXA2


Conditions at CPXA2 as of
(9:44 pm AKDT on 04/18/2024)
0544 GMT on 04/19/2024:
     

Click on the graph icon in the table below to see a time series plot of the last five days of that observation.

5-day plot - Wind Direction Wind Direction (WDIR):NNW ( 340 deg true )
5-day plot - Wind Speed Wind Speed (WSPD): 18 kts
5-day plot - Wind Gust Wind Gust (GST): 25 kts
5-day plot - Air Temperature Air Temperature (ATMP): 30.0 °F
5-day plot - Dew Point Dew Point (DEWP): 28.0 °F
5-day plot - Wind Chill Wind Chill (CHILL): 17.2 °F
5-day plot - Wind Speed at 10 Meters Wind Speed at 10 meters (WSPD10M): 17 kts
5-day plot - Wind Speed at 20 Meters Wind Speed at 20 meters (WSPD20M): 19 kts
5-day plot -  Wind Speed, Wind Gust and Atmospheric Pressure Combined plot of Wind Speed, Gust, and Air Pressure
Previous observations
TIME
(AKDT)
5-day plot - Wind Direction
WDIR
 
5-day plot - Wind Speed
WSPD
kts
5-day plot - Wind Gust
GST
kts
5-day plot - Wave Height
WVHT
ft
5-day plot - Dominant Wave Period
DPD
sec
5-day plot - Average Wave Period
APD
sec
5-day plot - Mean Wave Direction
MWD
 
5-day plot - Atmospheric Pressure
PRES
in
5-day plot - Pressure Tendency
PTDY
in
5-day plot - Air Temperature
ATMP
°F
5-day plot - Water Temperature
WTMP
°F
5-day plot - Dew Point
DEWP
°F
5-day plot - Salinity
SAL
psu
5-day plot - Visibility
VIS
nmi
5-day plot - Tide (above MLLW)
TIDE
ft
2024-04-18 09:34 pmNNW 19 26------ 30.0- 28.6---
2024-04-18 09:24 pmNNW 18 25------ 29.8- 28.6---
2024-04-18 09:14 pmNNW 20 29------ 29.7- 28.9---
2024-04-18 09:04 pmNNW 16 32------ 29.3- 29.1---
2024-04-18 08:54 pmNNW 18 26------ 29.3- 28.9---
2024-04-18 08:44 pmNNW 19 28------ 29.5- 28.2---
2024-04-18 08:34 pmNNW 19 27------ 30.0- 27.9---
2024-04-18 08:24 pmNNW 19 28------ 30.4- 27.3---
2024-04-18 08:14 pmNNW 19 26------ 30.0- 27.7---
2024-04-18 08:04 pmNNW 19 30------ 29.8- 27.5---
2024-04-18 07:54 pmNNW 19 26------ 30.0- 27.5---
2024-04-18 07:44 pmNNW 20 32------ 30.2- 27.3---
2024-04-18 07:34 pmNNW 19 33------ 30.0- 27.7---
2024-04-18 07:24 pmNNW 20 30------ 29.8- 27.5---
2024-04-18 07:14 pmNNW 21 43------ 30.0- 26.8---
2024-04-18 07:04 pmNNW 21 32------ 30.2- 27.7---
2024-04-18 06:54 pmNNW 23 31------ 30.2- 27.9---
2024-04-18 06:44 pmNNW 23 33------ 30.4- 27.7---
2024-04-18 06:34 pmNNW 20 31------ 30.7- 27.3---
2024-04-18 06:24 pmNNW 24 36------ 30.6- 27.0---
2024-04-18 06:14 pmNNW 23 37------ 30.0- 27.7---
2024-04-18 06:04 pmNNW 21 30------ 29.8- 28.2---
2024-04-18 05:54 pmNNW 21 30------ 30.0- 27.9---
2024-04-18 05:44 pmNNW 21 32------ 30.6- 27.5---
2024-04-18 05:34 pmNNW 18 27------ 30.7- 27.7---
2024-04-18 05:24 pm NW 18 34------ 30.6- 27.5---
2024-04-18 05:14 pmNNW 18 28------ 30.7- 27.7---
2024-04-18 05:04 pmNNW 18 28------ 30.6- 27.7---
2024-04-18 04:54 pmNNW 17 24------ 30.4- 27.9---
2024-04-18 04:44 pmNNW 19 34------ 30.7- 27.5---
2024-04-18 04:34 pmNNW 19 37------ 30.9- 27.3---
2024-04-18 04:24 pmNNW 16 26------ 30.9- 27.7---
2024-04-18 04:14 pmNNW 19 32------ 30.9- 27.5---
2024-04-18 03:44 pmNNW 20 32------ 30.9- 27.5---
2024-04-18 03:34 pmNNW 18 32------ 30.9- 27.5---
2024-04-18 03:24 pmNNW 18 32------ 30.9- 27.3---
2024-04-18 03:14 pmNNW 19 39------ 30.7- 27.9---
2024-04-18 03:04 pmNNW 19 36------ 30.7- 27.7---
2024-04-18 02:54 pmNNW 18 34------ 30.7- 27.5---
2024-04-18 02:44 pmNNW 18 31------ 30.9- 27.1---
2024-04-18 02:34 pmNNW 21 33------ 31.1- 27.1---
2024-04-18 02:14 pmNNW 19 34------ 30.7- 27.5---
2024-04-18 02:04 pmNNW 19 32------ 30.7- 27.3---
2024-04-18 01:54 pmNNW 20 40------ 30.7- 27.0---
2024-04-18 01:44 pmNNW 21 44------ 30.7- 26.8---
2024-04-18 01:34 pmNNW 21 42------ 31.1- 26.8---
2024-04-18 01:24 pmNNW 23 42------ 31.1- 26.8---
2024-04-18 01:14 pmNNW 22 60------ 30.7- 26.6---
2024-04-18 01:04 pmNNW 22 42------ 30.9- 27.0---
2024-04-18 12:54 pmNNW 21 41------ 31.1- 27.0---
2024-04-18 12:44 pm N 22 49------ 31.3- 27.0---
2024-04-18 12:34 pm N 24 63------ 31.5- 27.0---
2024-04-18 12:25 pm N 25 52------ 31.5- 27.0---
2024-04-18 12:14 pm N 22 47------ 31.6- 26.6---
2024-04-18 12:04 pm N 17 53------ 31.6- 26.8---
2024-04-18 11:54 am N 17 49------ 31.6- 26.8---
2024-04-18 11:44 am N 18 47------ 31.6- 26.8---
2024-04-18 11:34 am N 18 45------ 31.5- 27.0---
2024-04-18 11:25 am N 24 49------ 31.5- 27.1---
2024-04-18 11:14 amNNW 20 58------ 31.3- 27.1---
2024-04-18 11:04 am N 23 57------ 31.5- 27.1---
2024-04-18 10:54 am N 18 57------ 31.6- 27.3---
2024-04-18 10:44 am N 20 50------ 31.8- 27.3---
2024-04-18 10:34 am N 21 52------ 31.6- 27.3---
2024-04-18 10:24 am N 22 51------ 31.8- 27.5---
2024-04-18 10:14 amNNW 21 48------ 31.6- 27.5---
2024-04-18 10:04 amNNW 24 50------ 31.6- 27.7---
2024-04-18 09:54 am N 22 56------ 31.8- 27.7---
2024-04-18 09:44 amNNW 22 39------ 31.8- 27.9---
2024-04-18 09:34 am N 19 54------ 32.0- 28.0---
2024-04-18 09:24 amNNW 20 61------ 32.0- 27.9---
2024-04-18 09:14 amNNW 21 49------ 32.0- 27.9---
2024-04-18 09:04 amNNW 21 46------ 32.0- 28.2---
2024-04-18 08:44 amNNW 24 62------ 32.0- 28.2---
2024-04-18 08:34 amNNW 22 47------ 32.2- 28.2---
2024-04-18 08:24 amNNW 24 55------ 32.4- 28.0---
2024-04-18 08:14 amNNW 24 48------ 32.0- 28.2---
2024-04-18 08:04 am N 21 49------ 32.0- 28.8---
2024-04-18 07:54 amNNW 22 45------ 32.2- 28.8---
2024-04-18 07:44 am N 20 45------ 32.2- 28.6---
2024-04-18 07:34 am N 22 49------ 32.2- 28.8---
2024-04-18 07:24 amNNW 22 50------ 32.2- 29.3---
2024-04-18 07:14 amNNW 22 52------ 32.2- 29.3---
2024-04-18 07:04 am N 21 46------ 32.4- 28.9---
2024-04-18 06:54 am N 20 47------ 32.4- 29.1---
2024-04-18 06:44 amNNW 21 47------ 32.4- 28.9---
2024-04-18 06:34 amNNW 23 47------ 32.4- 29.1---
2024-04-18 06:24 amNNW 20 47------ 32.5- 29.1---
2024-04-18 06:14 amNNW 23 50------ 32.5- 28.9---
2024-04-18 06:04 amNNW 27 56------ 32.7- 28.9---
2024-04-18 05:54 amNNW 27 52------ 32.7- 29.1---
2024-04-18 05:44 amNNW 27 52------ 32.9- 28.9---
2024-04-18 05:34 amNNW 25 45------ 32.7- 29.3---
2024-04-18 05:24 amNNW 26 49------ 32.7- 29.5---
2024-04-18 05:14 amNNW 23 59------ 33.1- 29.7---
2024-04-18 05:04 amNNW 26 47------ 33.1- 29.7---
2024-04-18 04:54 amNNW 25 50------ 33.3- 29.8---
2024-04-18 04:44 amNNW 26 51------ 33.4- 30.0---
2024-04-18 04:34 amNNW 26 46------ 33.8- 30.2---
2024-04-18 04:24 amNNW 25 43------ 34.2- 30.4---
2024-04-18 04:14 amNNW 24 46------ 34.3- 30.4---
2024-04-18 04:04 amNNW 26 47------ 34.5- 30.4---
2024-04-18 03:54 amNNW 25 40------ 34.5- 30.6---
2024-04-18 03:44 amNNW 24 48------ 34.5- 30.6---
2024-04-18 03:34 am NW 26 43------ 34.5- 30.4---
2024-04-18 03:24 am NW 29 47------ 34.7- 30.4---
2024-04-18 03:14 am NW 25 38------ 34.5- 30.7---
2024-04-18 03:04 amNNW 25 41------ 34.5- 30.9---
2024-04-18 02:54 am NW 25 44------ 34.5- 30.9---
2024-04-18 02:44 am NW 26 40------ 34.7- 30.6---
2024-04-18 02:34 amNNW 27 40------ 34.7- 30.7---
2024-04-18 02:24 am NW 23 41------ 34.3- 30.9---
2024-04-18 02:14 am NW 25 35------ 34.3- 31.1---
2024-04-18 02:04 am NW 25 42------ 34.2- 31.1---
2024-04-18 01:54 am NW 26 41------ 34.0- 31.3---
2024-04-18 01:44 am NW 26 40------ 34.0- 31.5---
2024-04-18 01:34 am NW 26 42------ 33.6- 31.5---
2024-04-18 01:14 am NW 28 45------ 34.3- 30.9---
2024-04-18 01:04 am NW 24 41------ 34.5- 31.1---
2024-04-18 12:54 am NW 25 40------ 34.7- 30.9---
2024-04-18 12:44 am NW 25 50------ 34.7- 30.9---
2024-04-18 12:34 am NW 27 40------ 34.7- 30.9---
2024-04-18 12:24 am NW 27 39------ 34.7- 30.9---
2024-04-18 12:15 am NW 27 38------ 34.7- 30.9---
2024-04-18 12:04 am NW 26 40------ 34.7- 31.1---
2024-04-17 11:54 pm NW 27 44------ 34.9- 30.9---
2024-04-17 11:44 pm NW 25 36------ 34.7- 30.9---
2024-04-17 11:34 pm NW 26 41------ 34.7- 30.9---
2024-04-17 11:24 pm NW 26 40------ 34.3- 30.7---
2024-04-17 11:14 pm NW 27 38------ 34.5- 30.7---
2024-04-17 11:04 pm NW 27 42------ 34.5- 30.7---
2024-04-17 10:54 pm NW 26 37------ 34.3- 30.7---
2024-04-17 10:44 pm NW 27 42------ 34.2- 30.4---
2024-04-17 10:34 pm NW 27 48------ 34.0- 30.4---
2024-04-17 10:24 pm NW 26 41------ 33.8- 30.4---
2024-04-17 10:14 pmNNW 26 46------ 33.8- 30.0---
2024-04-17 10:04 pmNNW 23 46------ 33.8- 29.8---
2024-04-17 09:54 pmNNW 26 53------ 33.6- 29.8---
2024-04-17 09:44 pmNNW 25 50------ 33.4- 29.7---
2024-04-17 09:34 pmNNW 25 44------ 33.3- 29.5---
2024-04-17 09:24 pmNNW 25 50------ 33.1- 29.3---
2024-04-17 09:14 pmNNW 22 49------ 32.7- 29.3---
2024-04-17 09:04 pmNNW 23 46------ 32.5- 29.1---
2024-04-17 08:54 pm N 24 51------ 32.5- 28.9---